• In Hungary
  • List of Countries
  • For 7 days
  • Water Temperature
  • Satellite Maps
  • Weather Map
  • News
  • Weather Widgets
  • user-avatar
    Login

    Hourly Weather Arkadia

    Today, 21 September, Friday

    Time Temperature Precipitation Wind Pressure Humidity
    00:00 +15°C° 0 mm 1 mps 667 mmHg 69%
    01:00 +14°C° 0 mm 1 mps 667 mmHg 69%
    02:00 +14°C° 0 mm 1 mps 666 mmHg 68%
    03:00 +14°C° 0 mm 1 mps 666 mmHg 67%
    04:00 +13°C° 0 mm 1 mps 666 mmHg 66%
    05:00 +14°C° 0 mm 1 mps 667 mmHg 61%
    06:00 +15°C° 0 mm 1 mps 667 mmHg 55%
    07:00 +18°C° 0 mm 1 mps 667 mmHg 51%
    08:00 +20°C° 0 mm 1 mps 668 mmHg 46%
    09:00 +22°C° 0 mm 1 mps 668 mmHg 40%
    10:00 +23°C° 0 mm 2 mps 669 mmHg 34%
    11:00 +24°C° 0 mm 2 mps 669 mmHg 34%
    12:00 +24°C° 0 mm 2 mps 669 mmHg 33%
    13:00 +25°C° 0 mm 2 mps 669 mmHg 32%
    14:00 +24°C° 0 mm 2 mps 669 mmHg 35%
    15:00 +24°C° 0 mm 2 mps 668 mmHg 38%
    16:00 +23°C° 0 mm 2 mps 668 mmHg 41%
    17:00 +20°C° 0 mm 2 mps 668 mmHg 49%
    18:00 +20°C° 0 mm 1 mps 667 mmHg 56%
    19:00 +18°C° 0 mm 1 mps 667 mmHg 63%
    20:00 +16°C° 0 mm 1 mps 667 mmHg 65%
    21:00 +16°C° 0 mm 1 mps 667 mmHg 67%
    22:00 +15°C° 0 mm 1 mps 667 mmHg 69%
    23:00 +15°C° 0 mm 1 mps 667 mmHg 69%

    Tomorrow, 22 September, Saturday

    Time Temperature Precipitation Wind Pressure Humidity
    00:00 +15°C° 0 mm 1 mps 667 mmHg 69%
    01:00 +15°C° 0 mm 1 mps 667 mmHg 69%
    02:00 +14°C° 0 mm 1 mps 667 mmHg 68%
    03:00 +14°C° 0 mm 1 mps 666 mmHg 67%
    04:00 +14°C° 0 mm 1 mps 666 mmHg 67%
    05:00 +15°C° 0 mm 1 mps 667 mmHg 63%
    06:00 +16°C° 0 mm 1 mps 667 mmHg 58%
    07:00 +18°C° 0 mm 1 mps 668 mmHg 54%
    08:00 +20°C° 0 mm 1 mps 668 mmHg 48%
    09:00 +22°C° 0 mm 1 mps 669 mmHg 41%
    10:00 +24°C° 0 mm 1 mps 670 mmHg 35%
    11:00 +24°C° 0 mm 2 mps 670 mmHg 34%
    12:00 +25°C° 0 mm 2 mps 670 mmHg 33%
    13:00 +25°C° 0 mm 2 mps 670 mmHg 32%
    14:00 +25°C° 0 mm 2 mps 669 mmHg 35%
    15:00 +24°C° 0 mm 2 mps 669 mmHg 38%
    16:00 +24°C° 0 mm 2 mps 669 mmHg 40%
    17:00 +21°C° 0 mm 2 mps 669 mmHg 47%
    18:00 +20°C° 0 mm 1 mps 668 mmHg 53%
    19:00 +19°C° 0 mm 1 mps 668 mmHg 59%
    20:00 +18°C° 0 mm 1 mps 668 mmHg 61%
    21:00 +18°C° 0 mm 1 mps 668 mmHg 63%
    22:00 +16°C° 0 mm 1 mps 668 mmHg 65%
    23:00 +16°C° 0 mm 1 mps 668 mmHg 65%

    Day after tomorrow, 23 September, Sunday

    Time Temperature Precipitation Wind Pressure Humidity
    00:00 +16°C° 0 mm 1 mps 668 mmHg 65%
    01:00 +15°C° 0 mm 1 mps 668 mmHg 65%
    02:00 +15°C° 0 mm 1 mps 668 mmHg 66%
    03:00 +15°C° 0 mm 1 mps 668 mmHg 66%
    04:00 +15°C° 0 mm 1 mps 668 mmHg 66%
    05:00 +16°C° 0 mm 1 mps 668 mmHg 61%
    06:00 +18°C° 0 mm 1 mps 669 mmHg 57%
    07:00 +19°C° 0 mm 1 mps 669 mmHg 52%
    08:00 +21°C° 0 mm 1 mps 670 mmHg 44%
    09:00 +24°C° 0 mm 1 mps 671 mmHg 36%
    10:00 +26°C° 0 mm 2 mps 672 mmHg 27%
    11:00 +26°C° 0 mm 2 mps 672 mmHg 26%
    12:00 +27°C° 0 mm 2 mps 672 mmHg 25%
    13:00 +27°C° 0 mm 2 mps 672 mmHg 24%
    14:00 +27°C° 0 mm 2 mps 671 mmHg 27%
    15:00 +26°C° 0 mm 2 mps 671 mmHg 29%
    16:00 +25°C° 0 mm 2 mps 671 mmHg 32%
    17:00 +23°C° 0 mm 1 mps 670 mmHg 38%
    18:00 +21°C° 0 mm 1 mps 670 mmHg 45%
    19:00 +20°C° 0 mm 1 mps 670 mmHg 52%
    20:00 +19°C° 0 mm 1 mps 670 mmHg 52%
    21:00 +19°C° 0 mm 1 mps 670 mmHg 52%
    22:00 +18°C° 0 mm 1 mps 669 mmHg 53%
    23:00 +18°C° 0 mm 1 mps 669 mmHg 52%

    24 September, Monday

    Time Temperature Precipitation Wind Pressure Humidity
    00:00 +18°C° 0 mm 1 mps 669 mmHg 50%
    01:00 +16°C° 0 mm 1 mps 669 mmHg 49%
    02:00 +16°C° 0 mm 1 mps 668 mmHg 48%
    03:00 +16°C° 0 mm 1 mps 668 mmHg 47%
    04:00 +16°C° 0 mm 1 mps 668 mmHg 46%
    05:00 +18°C° 0 mm 1 mps 668 mmHg 44%
    06:00 +19°C° 0 mm 1 mps 668 mmHg 41%
    07:00 +20°C° 0 mm 1 mps 668 mmHg 39%
    08:00 +22°C° 0 mm 1 mps 669 mmHg 35%
    09:00 +24°C° 0 mm 1 mps 669 mmHg 31%
    10:00 +26°C° 0 mm 1 mps 669 mmHg 28%
    11:00 +27°C° 0 mm 2 mps 669 mmHg 27%
    12:00 +27°C° 0 mm 2 mps 669 mmHg 27%
    13:00 +28°C° 0 mm 2 mps 669 mmHg 26%
    14:00 +27°C° 0 mm 2 mps 668 mmHg 29%
    15:00 +26°C° 0 mm 2 mps 668 mmHg 32%
    16:00 +26°C° 0 mm 2 mps 667 mmHg 35%
    17:00 +24°C° 0 mm 2 mps 667 mmHg 42%
    18:00 +21°C° 0 mm 2 mps 666 mmHg 50%
    19:00 +20°C° 0 mm 1 mps 666 mmHg 58%
    20:00 +19°C° 0 mm 1 mps 666 mmHg 62%
    21:00 +19°C° 0 mm 1 mps 666 mmHg 66%
    22:00 +18°C° 0 mm 1 mps 666 mmHg 70%
    23:00 +18°C° 0 mm 1 mps 665 mmHg 71%

    25 September, Tuesday

    Time Temperature Precipitation Wind Pressure Humidity
    00:00 +16°C° 0 mm 1 mps 665 mmHg 73%
    01:00 +16°C° 0 mm 1 mps 665 mmHg 74%
    02:00 +16°C° 0 mm 1 mps 665 mmHg 73%
    03:00 +16°C° 0 mm 1 mps 665 mmHg 71%
    04:00 +15°C° 0 mm 1 mps 665 mmHg 70%
    05:00 +16°C° 0 mm 1 mps 665 mmHg 65%
    06:00 +17°C° 0 mm 2 mps 666 mmHg 61%
    07:00 +18°C° 0 mm 2 mps 666 mmHg 56%
    08:00 +20°C° 0 mm 2 mps 667 mmHg 51%
    09:00 +21°C° 0 mm 2 mps 668 mmHg 46%
    10:00 +24°C° 0 mm 3 mps 668 mmHg 41%
    11:00 +24°C° 0 mm 3 mps 668 mmHg 42%
    12:00 +24°C° 0 mm 3 mps 668 mmHg 43%
    13:00 +24°C° 0 mm 3 mps 668 mmHg 45%
    14:00 +22°C° 0 mm 3 mps 668 mmHg 49%
    15:00 +20°C° 0 mm 3 mps 668 mmHg 53%
    16:00 +19°C° 0 mm 3 mps 668 mmHg 57%
    17:00 +18°C° 0 mm 3 mps 668 mmHg 60%
    18:00 +17°C° 0 mm 3 mps 668 mmHg 63%
    19:00 +16°C° 0 mm 3 mps 668 mmHg 66%
    20:00 +14°C° 0.1 mm 3 mps 668 mmHg 67%
    21:00 +13°C° 0.1 mm 3 mps 668 mmHg 68%
    22:00 +13°C° 0.1 mm 3 mps 668 mmHg 70%
    23:00 +12°C° 0.1 mm 3 mps 668 mmHg 71%

    26 September, Wednesday

    Time Temperature Precipitation Wind Pressure Humidity
    00:00 +12°C° 0.1 mm 4 mps 668 mmHg 72%
    01:00 +12°C° 0.1 mm 4 mps 668 mmHg 74%
    02:00 +11°C° 0.2 mm 4 mps 668 mmHg 72%
    03:00 +11°C° 0.2 mm 4 mps 668 mmHg 71%
    04:00 +10°C° 0.2 mm 5 mps 668 mmHg 69%
    05:00 +9°C° 0.2 mm 5 mps 668 mmHg 69%
    06:00 +9°C° 0.2 mm 5 mps 668 mmHg 69%
    07:00 +8°C° 0.2 mm 6 mps 668 mmHg 69%
    08:00 +8°C° 1.3 mm 6 mps 669 mmHg 72%
    09:00 +8°C° 1.3 mm 6 mps 669 mmHg 75%
    10:00 +7°C° 1.3 mm 6 mps 669 mmHg 78%
    11:00 +7°C° 1.4 mm 6 mps 669 mmHg 75%
    12:00 +7°C° 1.4 mm 6 mps 669 mmHg 73%
    13:00 +7°C° 1.4 mm 6 mps 669 mmHg 70%
    14:00 +8°C° 0.2 mm 6 mps 669 mmHg 65%
    15:00 +8°C° 0.2 mm 6 mps 669 mmHg 60%
    16:00 +8°C° 0.2 mm 6 mps 669 mmHg 55%
    17:00 +8°C° 0 mm 5 mps 669 mmHg 57%
    18:00 +7°C° 0 mm 5 mps 669 mmHg 58%
    19:00 +6°C° 0 mm 4 mps 669 mmHg 60%
    20:00 +6°C° 0 mm 4 mps 669 mmHg 60%
    21:00 +6°C° 0 mm 4 mps 669 mmHg 60%
    22:00 +6°C° 0 mm 4 mps 669 mmHg 60%
    23:00 +6°C° 0 mm 4 mps 669 mmHg 61%
    Show more